Trinidad, Colorado, United States (81082)
Lat: 37.17N, Lon: 104.5W
Wx Zone: COZ088
Local Info
Past Weather Observations for Wednesday, July 16, 2014

NOTE: This archive is for the closest National Weather Service station to Trinidad. Information may differ from the station used for current weather conditions.

Click here for Long-term Archive

Time Weather Temperature Dewpoint Humidity Pressure Winds Precip Visibility
23:54
Overcast
Rain
55°F / 13°C N/A N/A 30.18 in
(1022 mb)
Calm 0.06 in
(1.52 mm)
5SM
23:16
Overcast
Light Rain
55°F / 13°C N/A N/A 30.21 in
(1023 mb)
Calm 0.00 in
(0.00 mm)
10SM
22:54
Overcast
Rain
57°F / 14°C N/A N/A 30.18 in
(1022 mb)
Calm 0.01 in
(0.25 mm)
9SM
22:52
Overcast
Rain
57°F / 14°C N/A N/A 30.21 in
(1023 mb)
Calm 0.00 in
(0.00 mm)
9SM
22:25
Overcast
Light Rain
55°F / 13°C N/A N/A 30.18 in
(1022 mb)
Calm 0.00 in
(0.00 mm)
10SM
22:01
Overcast
Thunder Storms
55°F / 13°C N/A N/A 30.12 in
(1020 mb)
Calm 0.00 in
(0.00 mm)
7SM
21:54
Overcast
Rain
54°F / 12°C N/A N/A 30.15 in
(1021 mb)
Calm 0.10 in
(2.54 mm)
21:22
Overcast
Fog And Mist
52°F / 11°C N/A N/A 30.15 in
(1021 mb)
Calm - 3SM
21:13
Overcast
Fog And Mist
52°F / 11°C N/A N/A 30.15 in
(1021 mb)
Calm - 1 3/4SM
20:54
Mostly Cloudy
54°F / 12°C N/A N/A 30.12 in
(1020 mb)
Calm 0.03 in
(0.76 mm)
20:50
Mostly Cloudy
52°F / 11°C N/A N/A 30.12 in
(1020 mb)
Calm 0.03 in
(0.76 mm)
20:42
Mostly Cloudy
54°F / 12°C N/A N/A 30.12 in
(1020 mb)
Calm 0.03 in
(0.76 mm)
20:31
Mostly Cloudy
55°F / 13°C N/A N/A 30.12 in
(1020 mb)
Calm 0.03 in
(0.76 mm)
20:17
Overcast
Light Rain
55°F / 13°C N/A N/A 30.09 in
(1019 mb)
Calm 0.03 in
(0.76 mm)
20:11
Overcast
Thunder Storms
55°F / 13°C N/A N/A 30.09 in
(1019 mb)
Calm 0.03 in
(0.76 mm)
1/4SM
20:02
Overcast
Thunder Storms
55°F / 13°C N/A N/A 30.09 in
(1019 mb)
Calm 0.02 in
(0.51 mm)
1/4SM
19:54
Overcast
Thunder Storms
54°F / 12°C 54°F / 12°C 100% 30.09 in
(1019 mb)
Calm 1.15 in
(29.21 mm)
19:40
Overcast
Thunder Storms
55°F / 13°C 55°F / 13°C 100% 30.12 in
(1020 mb)
Calm 0.59 in
(14.99 mm)
1/4SM
19:36
Overcast
Thunder Storms
59°F / 15°C 57°F / 14°C 94% 30.06 in
(1018 mb)
Calm 0.06 in
(1.52 mm)
1 3/4SM
19:30
Overcast
Thunder Storms
64°F / 18°C 61°F / 16°C 88% 30.09 in
(1019 mb)
N 17.3 mph
(N 28 kph)
0.00 in
(0.00 mm)
10SM
19:19
Overcast
Thunder Storms
64°F / 18°C 61°F / 16°C 88% 30.04 in
(1017 mb)
E 11.5 mph
(E 19 kph)
0.00 in
(0.00 mm)
10SM
19:00
Overcast
Light Rain
64°F / 18°C 63°F / 17°C 94% 30.04 in
(1017 mb)
ENE 19.6 mph
(ENE 32 kph)
0.00 in
(0.00 mm)
9SM
18:54
Overcast
Thunder Storms
64°F / 18°C 63°F / 17°C 94% 30.04 in
(1017 mb)
ENE 26.5 mph
(ENE 43 kph)
0.02 in
(0.51 mm)
7SM
18:36
Mostly Cloudy
Thunder Storms
66°F / 19°C 63°F / 17°C 88% 30.06 in
(1018 mb)
NE 21.9 mph
(NE 35 kph)
0.01 in
(0.25 mm)
5SM
17:54
Mostly Cloudy
72°F / 22°C 61°F / 16°C 69% 30.04 in
(1017 mb)
NE 25.3 mph
(NE 41 kph)
0.00 in
(0.00 mm)
10SM
16:54
Partly Cloudy
77°F / 25°C 48°F / 9°C 36% 30.01 in
(1016 mb)
ESE 5.8 mph
(ESE 9 kph)
- 10SM
15:54
Partly Cloudy
75°F / 24°C 46°F / 8°C 36% 30.01 in
(1016 mb)
SE 12.7 mph
(SE 20 kph)
- 10SM
15:35
Overcast
72°F / 22°C 54°F / 12°C 53% 30.01 in
(1016 mb)
S 16.1 mph
(S 26 kph)
- 10SM
15:20
Mostly Cloudy
Thunder Storms
79°F / 26°C 55°F / 13°C 45% 30.04 in
(1017 mb)
SSE 12.7 mph
(SSE 20 kph)
- 10SM
15:10
Mostly Cloudy
75°F / 24°C 55°F / 13°C 50% 30.04 in
(1017 mb)
SW 15 mph
(SW 24 kph)
- 10SM
14:54
Clear
Thunder Storms
81°F / 27°C 57°F / 14°C 45% 30.01 in
(1016 mb)
NE 16.1 mph
(NE 26 kph)
0.00 in
(0.00 mm)
10SM
14:43
Partly Cloudy
82°F / 28°C 57°F / 14°C 42% 30.01 in
(1016 mb)
NE 18.4 mph
(NE 30 kph)
0.00 in
(0.00 mm)
10SM
14:19
Partly Cloudy
Thunder Storms
88°F / 31°C 55°F / 13°C 33% 30.01 in
(1016 mb)
N 26.5 mph
(N 43 kph)
- 10SM
14:12
Partly Cloudy
88°F / 31°C 54°F / 12°C 31% 30.01 in
(1016 mb)
NE 15 mph
(NE 24 kph)
- 10SM
13:54
Clear
Thunder Storms
86°F / 30°C 48°F / 9°C 27% 30.01 in
(1016 mb)
NNW 16.1 mph
(NNW 26 kph)
- 10SM
12:54
Clear
84°F / 29°C 52°F / 11°C 33% 30.04 in
(1017 mb)
NNW 9.2 mph
(NNW 15 kph)
- 10SM
11:54
Clear
82°F / 28°C 52°F / 11°C 35% 30.04 in
(1017 mb)
NE 4.6 mph
(NE 7 kph)
- 10SM
10:54
Clear
79°F / 26°C 50°F / 10°C 37% 30.06 in
(1018 mb)
Variable 3.5 mph
(Variable 6 kph)
- 10SM
09:54
Clear
75°F / 24°C 55°F / 13°C 50% 30.09 in
(1019 mb)
NNE 5.8 mph
(NNE 9 kph)
- 10SM
08:54
Mostly Cloudy
72°F / 22°C 54°F / 12°C 53% 30.12 in
(1020 mb)
Variable 3.5 mph
(Variable 6 kph)
- 10SM
07:54
Mostly Cloudy
68°F / 20°C 54°F / 12°C 60% 30.12 in
(1020 mb)
N 9.2 mph
(N 15 kph)
0.00 in
(0.00 mm)
10SM
06:54
Partly Cloudy
Light Rain
63°F / 17°C 52°F / 11°C 68% 30.09 in
(1019 mb)
SSW 13.8 mph
(SSW 22 kph)
0.00 in
(0.00 mm)
10SM
05:54
Clear
59°F / 15°C 52°F / 11°C 77% 30.09 in
(1019 mb)
SSW 15 mph
(SSW 24 kph)
- 10SM
04:54
Clear
63°F / 17°C 55°F / 13°C 77% 30.09 in
(1019 mb)
SSW 9.2 mph
(SSW 15 kph)
- 10SM
03:54
Clear
61°F / 16°C 55°F / 13°C 83% 30.12 in
(1020 mb)
S 8.1 mph
(S 13 kph)
- 10SM
02:54
Clear
59°F / 15°C 55°F / 13°C 88% 30.12 in
(1020 mb)
SSW 4.6 mph
(SSW 7 kph)
- 10SM
01:54
Clear
61°F / 16°C 54°F / 12°C 77% 30.12 in
(1020 mb)
Calm - 10SM
00:54
Clear
63°F / 17°C 52°F / 11°C 68% 30.12 in
(1020 mb)
SW 8.1 mph
(SW 13 kph)
- 10SM
Time Weather Temperature Dewpoint Humidity Pressure Winds Precip Visibility


Weather for websites

WeatherForYou.com, LLC is not responsible for any damages or problems caused by this service. Current weather conditions are obtained from the closest station including government and personal stations which may have varying degrees of accuracy. Weather forecasts are derived from the NOAA NDFD. Like all things, this site belongs to Jesus Christ... He just trusts me to maintain it. If you have any questions or comments email webmaster@weatherforyou.com

Copyright © 2014, WeatherForYou.com LLC. All rights reserved.